Weather Roundup
Issued by NWS Springfield, MO

Home | Current Version | Previous Version | Text Only | Print | Product List | Glossary On
Versions: 1 2 3 4 5 6 7 8 9 10 11 12 13 14 15 16 17 18 19 20 21 22 23 24 25 26 27 28 29 30 31 32 33 34 35 36 37 38 39 40 41 42 43 44 45 46 47 48 49 50
000
NZUS99 KSGF 291407
HRRSGF

HOURLY WEATHER
NATIONAL WEATHER SERVICE SPRINGFIELD MO
900 AM CDT WED JUL 29 2015

......SGF CWA......

CITY           SKY/WX    TMP DP  RH WIND       PRES   REMARKS
SPRINGFIELD    SUNNY     82  72  71 CALM      30.10S
JOPLIN         SUNNY     82  74  76 E7        30.10S
WEST PLAINS    MOSUNNY   84  75  74 NW9       30.10R HX  92
ROLLA          SUNNY     79  72  79 CALM      30.06R
OSAGE BEACH    SUNNY     81  68  65 S5        30.06F
BRANSON        MOSUNNY   82  72  69 CALM      30.12R

......SURROUNDING SGF CWA......

CITY           SKY/WX    TMP DP  RH WIND       PRES   REMARKS
CHANUTE        MOSUNNY   79  69  71 N12       30.12R
PARSONS        MOSUNNY   82  71  69 VRB5      30.11R
COFFEYVILLE    SUNNY     83  73  72 NE9       30.09R
EMPORIA        PTSUNNY   72  69  90 E12       30.12F
GROVE OK       SUNNY     82  81  94 N7        30.11R HX  95
ROGERS AR      SUNNY     84  73  69 CALM      30.12R HX  90
SILOAM SPRINGS SUNNY     82  70  65 CALM      30.10R
HARRISON AR    MOSUNNY   83  73  72 W5        30.12R
NEAR YELLVILLE PTSUNNY   82  72  69 CALM      30.07R

......KANSAS AND MISSOURI......

CITY           SKY/WX    TMP DP  RH WIND       PRES   REMARKS
KANSAS CTY INT CLOUDY    72  71  97 NW3       30.14R
DOWNTOWN KC    LGT RAIN  74  72  93 NW8       30.13R
COLUMBIA       MOSUNNY   78  71  79 N10       30.08R
SEDALIA        PTSUNNY   77  70  79 NW17G26   30.13R
ST JOSEPH      CLOUDY    73  71  93 N5        30.13S
ST LOUIS       PTSUNNY   83  72  69 VRB5      30.02S
SPIRIT OF STL  PTSUNNY   81  73  76 N5        30.01S
KIRKSVILLE     PTSUNNY   76  70  82 NW6       30.11R
WICHITA        CLOUDY    79  69  71 N10G20    30.14R
TOPEKA         LGT RAIN  71  70  96 E10       30.09F
OLATHE         LGT RAIN  72  71  97 N7        30.13R

......TENNESSEE......

CITY           SKY/WX    TMP DP  RH WIND       PRES   REMARKS
MEMPHIS        CLOUDY    86  76  71 W5        30.05R HX  96
NASHVILLE      MOSUNNY   80  75  84 VRB3      30.05R

......ARKANSAS.......

CITY           SKY/WX    TMP DP  RH WIND       PRES   REMARKS
FAYETTEVILLE   SUNNY     80  72  76 E3        30.12R
FT SMITH       SUNNY     83  73  72 E3        30.06R HAZE
LITTLE ROCK    SUNNY     89  73  59 CALM      30.05R HX  97

......OKLAHOMA.......

CITY           SKY/WX    TMP DP  RH WIND       PRES   REMARKS
TULSA          MOSUNNY   85  70  60 VRB5      30.04R
PONCA CITY     MOSUNNY   82  70  66 E14       30.07R
MCALESTER      MOSUNNY   84  70  62 CALM      30.06R
OKLAHOMA CITY  MOSUNNY   80  69  69 S8        30.05R

......IOWA............

CITY           SKY/WX    TMP DP  RH WIND       PRES   REMARKS
DES MOINES     PTSUNNY   75  61  61 NW7       30.11R
QUAD CITIES    CLOUDY    77  68  73 NW7       30.03R

......ILLINOIS........

CITY           SKY/WX    TMP DP  RH WIND       PRES   REMARKS
QUINCY         CLOUDY    75  71  87 N10       30.04R
CHICAGO        CLOUDY    78  72  81 NW9       29.94F



USA.gov is the U.S. government's official web portal to all federal, state and local government web resources and services.